Starlink 5546

operational
NORAD ID: 55632 Int'l Des: 2023-021 Owner: SPXS Country: US Constellation: starlink
LEOCIRCULAR

关于 Starlink 5546

正在加载描述...

实时位置

正在加载3D地球...

即将过境

高度历史

Altitude vs Time

uPlot chart will show altitude changes over time

两行轨道根数

1 55632U 23021E 25304.74725895 .00001178 00000-0 10656-3 0 9998
2 55632 69.9979 169.5744 0002933 266.0260 94.0564 14.98323199148984
Epoch: Oct 31, 2025 • Age: 7 hours

当前状态

高度 585.4 km
速度 7.57 km/s
星下点 69.16°N, 135.25°W
发射日期 Feb 17, 2023
运行时间 2.7 years
类型 internet

技术详情

分类 Payload
质量 305.00 kg
干质量 290.00 kg
总质量 305.00 kg
长度 0.20 m
直径 2.80 m
跨度 9.00 m
形状 Box + pan
制造商 SPXS
平台类型 Starlink
阶段状态 In Orbit
所有者/国家 SPXS/US

大型星座

Loading constellations...